Location: Unspecified
(43.4680°N, 87.1740°E)
Time: 20:49:47
(UTC+00:00)

SeaSat 1 - Pass Details

Date: 17 April 2021
Orbit: 744 x 747 km, 108.0° (Epoch: 11 May)

Event Time Altitude Azimuth Distance (km) Brightness Sun altitude
Rises 17:03:21 0° 22° (NNE) 3,201 6.3 -33.7°
Reaches altitude 10° 17:05:39 10° 19° (NNE) 2,273 5.5 -33.8°
Enters shadow 17:08:32 34° 3° (N) 1,228 3.9 -34.0°
